Location: Unspecified
(48.7670°N, 0.0000°E)
Time: 10:20:02
(UTC+00:00)

Vanguard 2 Rocket - Pass Details

Date: 24 June 2019
Orbit: 554 x 3326 km, 32.9° (Epoch: 16 July)

Event Time Altitude Azimuth Distance (km) Brightness Sun altitude
Rises 22:53:47 0° 245° (WSW) 4,212 10.2 -16.2°
Reaches altitude 10° 22:56:27 10° 237° (WSW) 3,551 9.7 -16.3°
Maximum altitude 23:05:00 37° 174° (S) 2,876 8.9 -16.7°
Drops below altitude 10° 23:18:36 10° 116° (ESE) 5,640 10.6 -17.2°
Sets 23:24:11 0° 110° (ESE) 6,976 11.1 -17.3°
